Back to catalog

FENGYUN 1C DEB

AlivePO
NORAD 32241·DEBRIS·🇨🇳 China

Launched May 10, 1999 from Taiyuan Satellite Launch Center

Loading…

Next Passes (next 24 hours)

TLE

FreshSource: Space-Track

Epoch: Sep 11, 2026, 20:39 UTC

1 32241U 99025CWP 26254.86088194  .00002295  00000-0  80222-3 0  9995
2 32241  99.0575 300.5074 0143921 152.1063 208.7929 14.30588390977265

Track FENGYUN 1C DEB in real time with AllMySat

Download on the App Store